This is the latest recevied weather packets stored in our database for station/object WX4LTG. If no packets are shown the sender has not sent any weather packets the latest 10 day(s).
| Time | Temp. | Humidity | Pressure | Rain* | Wind** | Luminosity | Snow |
|---|---|---|---|---|---|---|---|
| 1777438432 | 22.78° C | 21% | 1014 hPa | 0 mm | - | 0 W/m² | - |
| 1777438128 | 23.33° C | 21% | 1013.9 hPa | 0 mm | - | 0 W/m² | - |
| 1777437824 | 23.33° C | 20% | 1014.1 hPa | 0 mm | - | 0 W/m² | - |
| 1777437520 | 23.33° C | 19% | 1014.3 hPa | 0 mm | - | 0 W/m² | - |
| 1777437218 | 23.89° C | 19% | 1014.1 hPa | 0 mm | - | 0 W/m² | - |
| 1777436914 | 24.44° C | 18% | 1013.9 hPa | 0 mm | - | 0 W/m² | - |
| 1777436611 | 23.89° C | 18% | 1013.9 hPa | 0 mm | - | 0 W/m² | - |
| 1777436307 | 24.44° C | 18% | 1014.3 hPa | 0 mm | - | 0 W/m² | - |
| 1777436003 | 24.44° C | 18% | 1014.1 hPa | 0 mm | - | 0 W/m² | - |
| 1777435700 | 24.44° C | 18% | 1014.1 hPa | 0 mm | - | 0 W/m² | - |
| 1777435396 | 24.44° C | 18% | 1014 hPa | 0 mm | - | 0 W/m² | - |
| 1777435090 | 25° C | 17% | 1013.9 hPa | 0 mm | - | 0 W/m² | - |
| 1777434787 | 25° C | 17% | 1014.1 hPa | 0 mm | - | 0 W/m² | - |
| 1777434486 | 25° C | 17% | 1014.1 hPa | 0 mm | - | 0 W/m² | - |
| 1777434183 | 25° C | 17% | 1014 hPa | 0 mm | - | 0 W/m² | - |
| 1777433880 | 25° C | 17% | 1014.2 hPa | 0 mm | - | 0 W/m² | - |
| 1777433577 | 25° C | 17% | 1013.8 hPa | 0 mm | - | 0 W/m² | - |
| 1777433277 | 25° C | 17% | 1013.9 hPa | 0 mm | - | 0 W/m² | - |
| 1777432974 | 25.56° C | 17% | 1013.4 hPa | 0 mm | - | 0 W/m² | - |
| 1777432674 | 25.56° C | 17% | 1013.8 hPa | 0 mm | - | 0 W/m² | - |
| 1777432371 | 25.56° C | 17% | 1013.6 hPa | 0 mm | - | 0 W/m² | - |
| 1777432070 | 25.56° C | 16% | 1013.6 hPa | 0 mm | - | 0 W/m² | - |
| 1777431766 | 25.56° C | 16% | 1013.6 hPa | 0 mm | - | 0 W/m² | - |
| 1777431462 | 25.56° C | 16% | 1013.4 hPa | 0 mm | - | 0 W/m² | - |
| 1777431158 | 26.11° C | 16% | 1013.4 hPa | 0 mm | - | 0 W/m² | - |
* Rain latest hour (hover to see other rain measurements)
** Current wind speed in m/s (hover to see current wind gust speed)